Tracking 19485 objects as of 21-Jan-2019
HD Live streaming from Space Station
objects crossing your sky now

FLOCK 3P 16

Track FLOCK 3P 16 now!
10-day predictions
FLOCK 3P 16 is classified as:


NORAD ID: 42011
Int'l Code: 2017-008BR
Perigee: 493.7 km
Apogee: 502.6 km
Inclination: 97.4 °
Period: 94.4 minutes
Semi major axis: 6869 km
RCS: Unknown
Launch date: February 15, 2017
Source: United States (US)
Launch site: SRIHARIKOTA (SRI)
aabbcc
Your satellite tracking list
Your tracking list is empty




NASA's NSSDC Master Catalog

Two Line Element Set (TLE):
1 42011U 17008BR  19020.91479477 +.00000574 +00000-0 +25946-4 0  9990
2 42011 097.4252 089.3710 0006488 340.4239 019.6748 15.24922192106467
Source of the keplerian elements: AFSPC